QPF
0.03 0.04 0.05 0.07 0.11 0.13 0.12 0.12 0.12 0.10 0.07 0.06 0.06 0.06 0.05 0.05 0.05 0.04 0.04 0.05 0.05 0.04 0.03 0.02 0.04 0.02 0.02 0.01 0.01 0.01 0.01 0.02 0.03 0.02 0.02 0.02 0.01 0.01 0.01 0.01 0.01 0.01 0.01
0.02 0.03 0.04 0.06 0.09 0.11 0.14 0.15 0.14 0.13 0.10 0.08 0.08 0.08 0.06 0.05 0.05 0.04 0.05 0.05 0.06 0.06 0.06 0.05 0.04 0.03 0.03 0.03 0.03 0.03 0.03 0.03 0.03 0.05 0.04 0.03 0.02 0.02 0.02 0.02 0.01 0.01 0.01
0.02 0.02 0.03 0.05 0.06 0.08 0.11 0.12 0.14 0.15 0.13 0.10 0.09 0.08 0.08 0.08 0.07 0.07 0.07 0.08 0.09 0.08 0.07 0.06 0.04 0.04 0.04 0.04 0.05 0.05 0.04 0.04 0.04 0.05 0.05 0.04 0.03 0.02 0.02 0.01 0.01 0.01 0.01
0.02 0.02 0.03 0.04 0.05 0.06 0.09 0.10 0.11 0.10 0.11 0.11 0.10 0.09 0.08 0.08 0.09 0.09 0.10 0.10 0.10 0.09 0.08 0.07 0.07 0.06 0.04 0.04 0.04 0.04 0.04 0.04 0.05 0.04 0.03 0.02 0.02 0.01 0.01 0.01 0.02 0.02 0.02
0.03 0.03 0.04 0.05 0.06 0.07 0.08 0.09 0.11 0.11 0.11 0.10 0.10 0.11 0.10 0.10 0.11 0.11 0.13 0.12 0.12 0.10 0.10 0.10 0.09 0.08 0.06 0.04 0.03 0.03 0.02 0.02 0.02 0.02 0.02 0.02 0.02 0.02 0.02 0.01 0.01 0.02 0.02
0.04 0.06 0.07 0.08 0.08 0.09 0.11 0.12 0.13 0.15 0.13 0.10 0.10 0.12 0.11 0.11 0.13 0.12 0.11 0.11 0.13 0.14 0.14 0.12 0.10 0.08 0.05 0.03 0.02 0.02 0.01 0.02 0.02 0.02 0.02 0.02 0.02 0.01 0.01 0.01 0.01 0.01 0.01
0.08 0.07 0.07 0.09 0.10 0.10 0.11 0.10 0.10 0.14 0.14 0.10 0.10 0.13 0.15 0.15 0.13 0.11 0.10 0.09 0.10 0.09 0.08 0.07 0.06 0.04 0.03 0.02 0.03 0.03 0.02 0.02 0.02 0.01 0.01 0.01 0.00 0.00 0.00 0.00 0.00 0.00 0.01
0.10 0.12 0.12 0.11 0.12 0.15 0.15 0.13 0.12 0.12 0.12 0.11 0.12 0.13 0.14 0.14 0.12 0.10 0.08 0.07 0.07 0.06 0.06 0.06 0.05 0.04 0.03 0.03 0.02 0.02 0.02 0.02 0.01 0.01 0.00 0.00 0.00 0.00 0.00 0.00 0.00 0.00 0.00
0.04 0.06 0.09 0.10 0.12 0.16 0.18 0.20 0.20 0.16 0.14 0.14 0.15 0.14 0.13 0.14 0.15 0.11 0.07 0.06 0.05 0.05 0.05 0.04 0.03 0.02 0.02 0.01 0.01 0.01 0.01 0.00 0.00 0.00 0.00 0.00 0.00 0.00 0.00 0.00 0.00 0.00 0.00
0.04 0.06 0.07 0.08 0.10 0.14 0.15 0.17 0.19 0.16 0.14 0.14 0.15 0.15 0.13 0.12 0.11 0.09 0.06 0.04 0.03 0.02 0.02 0.01 0.01 0.01 0.01 0.00 0.00 0.00 0.00 0.00 0.00 0.00 0.00 0.00 0.00 0.00 0.00 0.00 0.00 0.00 0.00
0.06 0.07 0.07 0.07 0.07 0.10 0.12 0.14 0.17 0.19 0.18 0.17 0.16 0.15 0.13 0.12 0.11 0.07 0.06 0.04 0.03 0.03 0.03 0.02 0.01 0.01 0.01 0.01 0.01 0.01 0.01 0.01 0.01 0.00 0.00 0.00 0.00 0.00 0.00 0.00 0.00 0.00 0.00
0.08 0.09 0.08 0.07 0.07 0.08 0.08 0.10 0.14 0.17 0.17 0.16 0.16 0.16 0.15 0.12 0.09 0.07 0.06 0.05 0.04 0.04 0.04 0.03 0.02 0.02 0.02 0.02 0.01 0.01 0.01 0.01 0.01 0.01 0.00 0.00 0.00 0.00 0.00 0.00 0.00 0.00 0.00
0.05 0.07 0.06 0.06 0.07 0.07 0.08 0.10 0.13 0.14 0.14 0.14 0.13 0.12 0.10 0.08 0.08 0.08 0.05 0.05 0.05 0.05 0.06 0.06 0.05 0.04 0.03 0.02 0.01 0.01 0.01 0.01 0.01 0.01 0.01 0.00 0.00 0.00 0.00 0.00 0.00 0.00 0.00
0.06 0.05 0.04 0.05 0.07 0.08 0.10 0.11 0.14 0.16 0.16 0.16 0.14 0.11 0.09 0.08 0.09 0.10 0.10 0.11 0.12 0.11 0.10 0.09 0.07 0.06 0.04 0.03 0.03 0.03 0.02 0.02 0.01 0.01 0.00 0.00 0.00 0.00 0.00 0.00 0.00 0.00 0.00
0.06 0.05 0.06 0.07 0.09 0.11 0.12 0.13 0.14 0.15 0.16 0.14 0.12 0.10 0.10 0.12 0.15 0.16 0.15 0.14 0.13 0.11 0.10 0.08 0.06 0.05 0.04 0.04 0.04 0.03 0.02 0.01 0.01 0.01 0.00 0.00 0.00 0.00 0.00 0.00 0.00 0.00 0.00
0.07 0.07 0.07 0.08 0.10 0.10 0.11 0.14 0.16 0.15 0.15 0.12 0.11 0.10 0.11 0.13 0.15 0.14 0.13 0.13 0.12 0.10 0.09 0.07 0.07 0.06 0.06 0.05 0.04 0.02 0.01 0.01 0.01 0.00 0.00 0.00 0.00 0.00 0.00 0.00 0.00 0.00 0.00
0.06 0.07 0.07 0.08 0.09 0.09 0.09 0.08 0.09 0.10 0.10 0.09 0.08 0.07 0.06 0.07 0.07 0.07 0.07 0.07 0.06 0.06 0.05 0.04 0.04 0.03 0.02 0.02 0.01 0.01 0.00 0.00 0.00 0.00 0.00 0.00 0.00 0.00 0.00 0.00 0.00 0.00 0.00
0.08 0.09 0.08 0.07 0.07 0.08 0.08 0.09 0.09 0.09 0.10 0.09 0.08 0.06 0.04 0.03 0.02 0.02 0.01 0.01 0.01 0.01 0.01 0.01 0.01 0.01 0.01 0.00 0.00 0.00 0.00 0.00 0.00 0.00 0.00 0.00 0.00 0.00 0.00 0.00 0.00 0.00 0.00
0.07 0.08 0.08 0.08 0.07 0.08 0.09 0.10 0.10 0.10 0.09 0.08 0.06 0.04 0.03 0.01 0.01 0.01 0.00 0.00 0.00 0.00 0.00 0.00 0.00 0.00 0.00 0.00 0.00 0.00 0.00 0.00 0.00 0.00 0.00 0.00 0.00 0.00 0.00 0.00 0.00 0.00 0.00
0.09 0.11 0.10 0.09 0.09 0.10 0.10 0.09 0.08 0.06 0.05 0.04 0.03 0.02 0.01 0.01 0.00 0.00 0.00 0.00 0.00 0.00 0.00 0.00 0.00 0.00 0.00 0.00 0.00 0.00 0.00 0.00 0.00 0.00 0.00 0.00 0.00 0.00 0.00 0.00 0.00 0.00 0.00
0.12 0.12 0.14 0.11 0.09 0.08 0.08 0.07 0.06 0.05 0.03 0.02 0.01 0.01 0.00 0.00 0.00 0.00 0.00 0.00 0.00 0.00 0.00 0.00 0.00 0.00 0.00 0.00 0.00 0.00 0.00 0.00 0.00 0.00 0.00 0.00 0.00 0.00 0.00 0.00 0.00 0.00 0.00
0.12 0.12 0.12 0.11 0.10 0.08 0.06 0.05 0.03 0.02 0.01 0.01 0.00 0.00 0.00 0.00 0.00 0.00 0.00 0.00 0.00 0.00 0.00 0.00 0.00 0.00 0.00 0.00 0.00 0.00 0.00 0.00 0.00 0.00 0.00 0.00 0.00 0.00 0.00 0.00 0.00 0.00 0.00
0.11 0.10 0.10 0.09 0.08 0.07 0.05 0.04 0.02 0.01 0.00 0.00 0.00 0.00 0.00 0.00 0.00 0.00 0.00 0.00 0.00 0.00 0.00 0.00 0.00 0.00 0.00 0.00 0.00 0.00 0.00 0.00 0.00 0.00 0.00 0.00 0.00 0.00 0.00 0.00 0.00 0.00 0.00
0.08 0.07 0.06 0.05 0.04 0.03 0.02 0.01 0.01 0.00 0.00 0.00 0.00 0.00 0.00 0.00 0.00 0.00 0.00 0.00 0.00 0.00 0.00 0.00 0.00 0.00 0.00 0.00 0.00 0.00 0.00 0.00 0.00 0.00 0.00 0.00 0.00 0.00 0.00 0.00 0.00 0.00 0.00
0.05 0.04 0.03 0.02 0.01 0.01 0.00 0.00 0.00 0.00 0.00 0.00 0.00 0.00 0.00 0.00 0.00 0.00 0.00 0.00 0.00 0.00 0.00 0.00 0.00 0.00 0.00 0.00 0.00 0.00 0.00 0.00 0.00 0.00 0.00 0.00 0.00 0.00 0.00 0.00 0.00 0.00 0.00
0.01 0.01 0.01 0.00 0.00 0.00 0.00 0.00 0.00 0.00 0.00 0.00 0.00 0.00 0.00 0.00 0.00 0.00 0.00 0.00 0.00 0.00 0.00 0.00 0.00 0.00 0.00 0.00 0.00 0.00 0.00 0.00 0.00 0.00 0.00 0.00 0.00 0.00 0.00 0.00 0.00 0.00 0.00
MSLP
1011.72 1012.10 1012.51 1012.94 1013.35 1013.71 1014.03 1014.29 1014.51 1014.71 1014.91 1015.11 1015.34 1015.61 1015.90 1016.24 1016.60 1016.98 1017.38 1017.78 1018.17 1018.54 1018.86 1019.13 1019.32 1019.44 1019.49 1019.48 1019.42 1019.34 1019.27 1019.23 1019.22 1019.26 1019.35 1019.46 1019.59 1019.72 1019.82 1019.91 1019.96 1020.00 1020.03
1011.31 1011.61 1011.98 1012.38 1012.78 1013.18 1013.55 1013.88 1014.19 1014.47 1014.73 1015.00 1015.28 1015.58 1015.91 1016.28 1016.68 1017.11 1017.56 1018.02 1018.47 1018.88 1019.25 1019.54 1019.75 1019.87 1019.91 1019.87 1019.80 1019.72 1019.65 1019.63 1019.66 1019.74 1019.88 1020.04 1020.20 1020.34 1020.44 1020.49 1020.48 1020.44 1020.37
1010.93 1011.19 1011.51 1011.89 1012.31 1012.73 1013.16 1013.57 1013.96 1014.33 1014.69 1015.04 1015.39 1015.75 1016.14 1016.55 1017.00 1017.48 1017.99 1018.50 1019.00 1019.46 1019.87 1020.19 1020.41 1020.54 1020.57 1020.52 1020.44 1020.35 1020.28 1020.26 1020.31 1020.42 1020.58 1020.75 1020.92 1021.05 1021.12 1021.11 1021.03 1020.89 1020.71
1010.66 1010.90 1011.21 1011.59 1012.01 1012.46 1012.93 1013.41 1013.88 1014.34 1014.79 1015.23 1015.67 1016.11 1016.56 1017.04 1017.55 1018.08 1018.63 1019.20 1019.74 1020.25 1020.69 1021.03 1021.27 1021.40 1021.43 1021.38 1021.28 1021.18 1021.10 1021.08 1021.12 1021.23 1021.38 1021.55 1021.70 1021.79 1021.80 1021.72 1021.55 1021.32 1021.04
1010.57 1010.82 1011.14 1011.52 1011.95 1012.43 1012.93 1013.45 1013.99 1014.52 1015.05 1015.57 1016.09 1016.61 1017.14 1017.68 1018.24 1018.83 1019.43 1020.03 1020.62 1021.15 1021.62 1021.98 1022.23 1022.37 1022.40 1022.35 1022.24 1022.13 1022.04 1022.00 1022.02 1022.10 1022.23 1022.36 1022.46 1022.51 1022.45 1022.30 1022.05 1021.72 1021.35
1010.66 1010.96 1011.31 1011.70 1012.15 1012.63 1013.15 1013.70 1014.27 1014.84 1015.43 1016.01 1016.60 1017.19 1017.78 1018.39 1019.00 1019.64 1020.28 1020.92 1021.53 1022.08 1022.56 1022.94 1023.20 1023.35 1023.38 1023.33 1023.22 1023.10 1022.99 1022.93 1022.92 1022.97 1023.05 1023.13 1023.18 1023.17 1023.06 1022.84 1022.52 1022.13 1021.69
1010.91 1011.28 1011.67 1012.10 1012.56 1013.04 1013.56 1014.11 1014.68 1015.28 1015.89 1016.51 1017.14 1017.78 1018.43 1019.08 1019.75 1020.42 1021.09 1021.75 1022.38 1022.95 1023.44 1023.82 1024.09 1024.24 1024.29 1024.24 1024.14 1024.01 1023.89 1023.80 1023.76 1023.77 1023.80 1023.83 1023.83 1023.76 1023.60 1023.35 1022.99 1022.56 1022.08
1011.26 1011.71 1012.17 1012.63 1013.11 1013.60 1014.11 1014.64 1015.20 1015.78 1016.40 1017.03 1017.69 1018.36 1019.04 1019.73 1020.43 1021.13 1021.82 1022.49 1023.12 1023.68 1024.17 1024.56 1024.84 1025.00 1025.05 1025.02 1024.92 1024.79 1024.67 1024.56 1024.49 1024.46 1024.45 1024.43 1024.39 1024.28 1024.10 1023.82 1023.46 1023.03 1022.55
1011.61 1012.16 1012.69 1013.22 1013.72 1014.22 1014.72 1015.24 1015.78 1016.35 1016.95 1017.58 1018.23 1018.92 1019.62 1020.32 1021.03 1021.74 1022.44 1023.10 1023.72 1024.28 1024.76 1025.15 1025.42 1025.59 1025.66 1025.64 1025.56 1025.44 1025.31 1025.19 1025.10 1025.04 1024.99 1024.93 1024.86 1024.73 1024.54 1024.27 1023.92 1023.52 1023.07
1011.91 1012.56 1013.18 1013.78 1014.33 1014.86 1015.38 1015.89 1016.41 1016.96 1017.55 1018.17 1018.82 1019.50 1020.19 1020.90 1021.61 1022.31 1022.99 1023.64 1024.24 1024.77 1025.23 1025.60 1025.87 1026.05 1026.12 1026.12 1026.06 1025.95 1025.83 1025.71 1025.60 1025.51 1025.43 1025.34 1025.24 1025.11 1024.92 1024.67 1024.36 1024.00 1023.60
1012.13 1012.87 1013.59 1014.27 1014.91 1015.49 1016.04 1016.58 1017.11 1017.66 1018.23 1018.84 1019.48 1020.14 1020.83 1021.52 1022.20 1022.88 1023.53 1024.14 1024.70 1025.20 1025.62 1025.97 1026.23 1026.39 1026.48 1026.49 1026.44 1026.35 1026.24 1026.12 1026.00 1025.89 1025.78 1025.67 1025.55 1025.41 1025.23 1025.00 1024.73 1024.42 1024.07
1012.29 1013.12 1013.94 1014.72 1015.44 1016.11 1016.72 1017.31 1017.88 1018.45 1019.03 1019.63 1020.26 1020.90 1021.55 1022.21 1022.86 1023.49 1024.09 1024.64 1025.15 1025.59 1025.97 1026.28 1026.51 1026.67 1026.76 1026.78 1026.74 1026.67 1026.56 1026.44 1026.32 1026.19 1026.06 1025.93 1025.79 1025.64 1025.46 1025.25 1025.01 1024.74 1024.44
1012.44 1013.35 1014.26 1015.14 1015.97 1016.73 1017.44 1018.09 1018.72 1019.32 1019.92 1020.53 1021.14 1021.76 1022.38 1022.99 1023.59 1024.15 1024.68 1025.17 1025.60 1025.98 1026.30 1026.56 1026.76 1026.90 1026.98 1027.00 1026.98 1026.91 1026.82 1026.70 1026.57 1026.43 1026.29 1026.13 1025.97 1025.80 1025.61 1025.41 1025.18 1024.93 1024.66
1012.67 1013.64 1014.63 1015.60 1016.52 1017.38 1018.18 1018.92 1019.60 1020.26 1020.88 1021.49 1022.09 1022.68 1023.26 1023.82 1024.34 1024.83 1025.29 1025.69 1026.04 1026.35 1026.60 1026.80 1026.96 1027.07 1027.13 1027.16 1027.14 1027.09 1027.01 1026.90 1026.77 1026.63 1026.47 1026.29 1026.11 1025.91 1025.70 1025.49 1025.26 1025.01 1024.75
1013.06 1014.06 1015.09 1016.12 1017.12 1018.06 1018.94 1019.74 1020.49 1021.18 1021.83 1022.44 1023.02 1023.58 1024.10 1024.60 1025.05 1025.46 1025.83 1026.15 1026.42 1026.64 1026.83 1026.97 1027.09 1027.17 1027.22 1027.24 1027.23 1027.20 1027.13 1027.04 1026.92 1026.77 1026.61 1026.42 1026.21 1025.99 1025.76 1025.52 1025.27 1025.02 1024.75
1013.65 1014.64 1015.68 1016.74 1017.77 1018.75 1019.66 1020.51 1021.29 1022.00 1022.65 1023.26 1023.81 1024.33 1024.80 1025.23 1025.62 1025.96 1026.24 1026.48 1026.68 1026.83 1026.95 1027.05 1027.12 1027.18 1027.22 1027.24 1027.24 1027.23 1027.19 1027.12 1027.02 1026.89 1026.72 1026.53 1026.31 1026.07 1025.82 1025.55 1025.27 1024.99 1024.70
1014.45 1015.39 1016.39 1017.41 1018.42 1019.39 1020.31 1021.15 1021.93 1022.64 1023.28 1023.86 1024.38 1024.85 1025.28 1025.65 1025.98 1026.25 1026.48 1026.65 1026.79 1026.89 1026.96 1027.02 1027.06 1027.10 1027.14 1027.17 1027.19 1027.20 1027.19 1027.15 1027.08 1026.97 1026.82 1026.64 1026.42 1026.17 1025.89 1025.60 1025.30 1024.98 1024.66
1015.37 1016.23 1017.14 1018.08 1019.03 1019.94 1020.81 1021.62 1022.36 1023.03 1023.63 1024.18 1024.67 1025.10 1025.48 1025.82 1026.10 1026.33 1026.51 1026.65 1026.75 1026.81 1026.86 1026.90 1026.93 1026.96 1027.00 1027.04 1027.08 1027.12 1027.14 1027.14 1027.10 1027.03 1026.91 1026.74 1026.53 1026.28 1026.00 1025.69 1025.36 1025.01 1024.65
1016.33 1017.06 1017.86 1018.69 1019.53 1020.35 1021.13 1021.87 1022.54 1023.16 1023.72 1024.23 1024.68 1025.08 1025.43 1025.74 1026.00 1026.21 1026.38 1026.50 1026.59 1026.65 1026.69 1026.72 1026.75 1026.79 1026.84 1026.90 1026.97 1027.03 1027.08 1027.11 1027.11 1027.07 1026.98 1026.83 1026.64 1026.40 1026.11 1025.79 1025.44 1025.07 1024.68
1017.19 1017.80 1018.46 1019.16 1019.87 1020.57 1021.25 1021.90 1022.51 1023.06 1023.57 1024.04 1024.47 1024.85 1025.19 1025.49 1025.75 1025.96 1026.13 1026.27 1026.37 1026.44 1026.50 1026.55 1026.59 1026.65 1026.71 1026.78 1026.87 1026.95 1027.03 1027.08 1027.11 1027.09 1027.02 1026.90 1026.73 1026.49 1026.21 1025.88 1025.52 1025.13 1024.72
1017.87 1018.35 1018.88 1019.44 1020.03 1020.62 1021.20 1021.76 1022.30 1022.80 1023.27 1023.71 1024.12 1024.49 1024.84 1025.15 1025.42 1025.65 1025.85 1026.02 1026.15 1026.25 1026.33 1026.40 1026.47 1026.54 1026.62 1026.71 1026.80 1026.90 1026.98 1027.05 1027.09 1027.08 1027.03 1026.92 1026.76 1026.53 1026.26 1025.93 1025.56 1025.16 1024.73
1018.30 1018.68 1019.10 1019.55 1020.03 1020.53 1021.03 1021.52 1022.00 1022.47 1022.91 1023.34 1023.74 1024.11 1024.47 1024.79 1025.09 1025.35 1025.59 1025.78 1025.95 1026.09 1026.20 1026.31 1026.40 1026.49 1026.58 1026.68 1026.78 1026.87 1026.95 1027.01 1027.05 1027.04 1026.99 1026.88 1026.71 1026.49 1026.22 1025.89 1025.53 1025.12 1024.69
1018.50 1018.79 1019.13 1019.51 1019.92 1020.35 1020.80 1021.25 1021.70 1022.15 1022.58 1022.99 1023.40 1023.78 1024.15 1024.49 1024.80 1025.09 1025.35 1025.58 1025.78 1025.95 1026.10 1026.23 1026.35 1026.46 1026.56 1026.66 1026.76 1026.84 1026.91 1026.95 1026.97 1026.94 1026.87 1026.75 1026.58 1026.35 1026.08 1025.76 1025.40 1025.00 1024.57
1018.51 1018.76 1019.06 1019.39 1019.77 1020.17 1020.59 1021.02 1021.45 1021.89 1022.31 1022.73 1023.13 1023.51 1023.88 1024.23 1024.55 1024.86 1025.13 1025.38 1025.60 1025.80 1025.97 1026.13 1026.27 1026.39 1026.51 1026.61 1026.70 1026.77 1026.82 1026.84 1026.83 1026.78 1026.69 1026.55 1026.36 1026.13 1025.85 1025.54 1025.18 1024.80 1024.38
1018.44 1018.67 1018.95 1019.27 1019.63 1020.02 1020.43 1020.85 1021.28 1021.71 1022.13 1022.54 1022.93 1023.30 1023.66 1024.00 1024.31 1024.61 1024.88 1025.13 1025.36 1025.57 1025.76 1025.94 1026.10 1026.24 1026.36 1026.47 1026.56 1026.62 1026.66 1026.66 1026.63 1026.55 1026.43 1026.27 1026.07 1025.83 1025.55 1025.24 1024.89 1024.53 1024.13
1018.36 1018.59 1018.87 1019.19 1019.54 1019.93 1020.33 1020.75 1021.18 1021.59 1022.00 1022.39 1022.76 1023.11 1023.43 1023.74 1024.03 1024.30 1024.55 1024.79 1025.02 1025.23 1025.43 1025.62 1025.79 1025.95 1026.09 1026.21 1026.30 1026.36 1026.39 1026.39 1026.34 1026.25 1026.11 1025.94 1025.72 1025.47 1025.19 1024.88 1024.55 1024.19 1023.83
Thickness
5743 5741 5739 5738 5737 5735 5733 5731 5730 5729 5728 5726 5726 5725 5725 5724 5722 5721 5722 5720 5718 5716 5715 5714 5711 5712 5713 5713 5713 5712 5711 5709 5702 5701 5700 5696 5691 5690 5689 5687 5687 5686 5682
5743 5741 5738 5736 5735 5733 5732 5730 5728 5726 5726 5724 5723 5722 5722 5721 5719 5717 5716 5715 5713 5711 5709 5707 5705 5704 5702 5703 5702 5701 5699 5697 5695 5689 5687 5686 5681 5679 5677 5676 5677 5677 5673
5743 5739 5736 5734 5733 5731 5730 5729 5726 5724 5723 5722 5720 5719 5718 5717 5715 5713 5711 5709 5706 5704 5702 5699 5697 5695 5692 5692 5690 5690 5689 5688 5685 5682 5678 5674 5672 5669 5667 5667 5666 5662 5664
5741 5737 5734 5732 5731 5729 5727 5725 5723 5721 5719 5717 5716 5715 5713 5711 5709 5707 5704 5700 5697 5694 5691 5689 5686 5684 5682 5681 5679 5677 5677 5676 5673 5671 5668 5664 5660 5658 5656 5655 5655 5653 5651
5737 5734 5731 5729 5727 5725 5723 5721 5719 5717 5715 5712 5710 5708 5706 5705 5703 5699 5695 5691 5687 5683 5680 5677 5674 5671 5669 5668 5668 5666 5665 5665 5663 5660 5656 5653 5647 5644 5643 5642 5641 5640 5638
5734 5731 5728 5725 5722 5720 5718 5716 5713 5711 5708 5706 5703 5701 5698 5695 5692 5689 5686 5681 5677 5673 5668 5664 5661 5657 5654 5652 5650 5649 5649 5649 5648 5646 5643 5637 5631 5630 5627 5628 5627 5626 5624
5730 5727 5724 5721 5718 5715 5713 5710 5706 5703 5700 5697 5694 5691 5687 5683 5681 5678 5675 5671 5667 5662 5658 5655 5653 5647 5645 5642 5638 5635 5632 5630 5629 5629 5626 5621 5618 5614 5612 5613 5609 5607 5604
5725 5722 5719 5716 5712 5709 5706 5702 5698 5696 5692 5688 5685 5682 5677 5671 5669 5667 5664 5660 5655 5651 5647 5644 5640 5636 5634 5631 5629 5625 5621 5617 5615 5613 5608 5604 5600 5596 5594 5594 5593 5593 5592
5719 5716 5713 5710 5706 5702 5698 5694 5690 5687 5683 5679 5675 5672 5667 5660 5657 5655 5653 5649 5643 5639 5635 5631 5628 5624 5620 5618 5617 5613 5609 5603 5598 5594 5590 5586 5582 5579 5577 5580 5579 5580 5579
5713 5710 5706 5703 5699 5695 5690 5686 5682 5678 5674 5670 5665 5661 5657 5651 5646 5645 5643 5640 5634 5629 5623 5619 5614 5611 5607 5606 5605 5602 5597 5592 5588 5584 5579 5574 5571 5567 5562 5560 5559 5559 5558
5707 5703 5698 5695 5691 5686 5681 5677 5673 5668 5664 5658 5654 5648 5644 5639 5635 5634 5633 5631 5626 5621 5616 5609 5600 5596 5593 5591 5589 5585 5580 5578 5577 5573 5569 5564 5559 5554 5549 5543 5537 5535 5533
5698 5694 5690 5685 5681 5677 5672 5667 5663 5658 5653 5647 5643 5637 5632 5627 5624 5622 5621 5618 5616 5611 5604 5596 5587 5582 5579 5577 5573 5567 5565 5564 5565 5561 5556 5550 5544 5538 5531 5525 5519 5514 5509
5688 5683 5678 5674 5669 5665 5662 5657 5652 5648 5644 5639 5634 5628 5621 5615 5610 5608 5606 5603 5600 5596 5588 5580 5574 5569 5566 5563 5557 5555 5555 5554 5550 5545 5540 5534 5528 5521 5516 5511 5507 5502 5498
5677 5671 5667 5662 5657 5652 5649 5646 5643 5639 5635 5630 5625 5618 5611 5606 5602 5597 5593 5587 5584 5579 5573 5565 5561 5557 5555 5550 5547 5545 5542 5536 5533 5529 5524 5519 5514 5509 5504 5499 5496 5491 5488
5665 5660 5655 5650 5646 5639 5634 5629 5628 5624 5624 5621 5616 5610 5603 5596 5588 5586 5585 5580 5576 5571 5564 5560 5557 5554 5550 5545 5539 5534 5529 5524 5520 5514 5510 5506 5501 5497 5492 5487 5481 5479 5476
5653 5648 5644 5638 5633 5627 5621 5612 5606 5607 5604 5602 5600 5597 5589 5583 5576 5572 5569 5565 5561 5556 5557 5554 5549 5544 5541 5536 5531 5524 5518 5512 5506 5502 5498 5493 5489 5485 5481 5477 5472 5468 5464
5643 5638 5633 5628 5623 5617 5612 5607 5598 5589 5586 5583 5581 5579 5574 5568 5564 5560 5556 5552 5548 5545 5548 5544 5538 5533 5529 5524 5519 5513 5507 5500 5494 5492 5487 5482 5478 5475 5471 5467 5462 5458 5455
5631 5626 5622 5616 5611 5607 5603 5598 5593 5588 5580 5570 5564 5560 5558 5555 5551 5548 5544 5541 5541 5539 5539 5534 5528 5522 5518 5513 5508 5502 5497 5492 5486 5482 5477 5473 5469 5466 5462 5458 5454 5448 5445
5618 5613 5610 5605 5601 5596 5593 5588 5582 5578 5572 5565 5557 5549 5544 5542 5539 5537 5535 5539 5538 5533 5529 5524 5519 5513 5508 5502 5496 5491 5486 5482 5476 5472 5469 5464 5461 5457 5453 5450 5447 5441 5437
5605 5601 5598 5595 5590 5586 5583 5578 5573 5569 5564 5559 5554 5548 5541 5538 5537 5533 5531 5531 5529 5524 5519 5514 5508 5503 5497 5492 5487 5482 5478 5474 5469 5466 5462 5457 5454 5450 5447 5444 5441 5438 5436
5594 5589 5586 5585 5582 5578 5574 5570 5566 5562 5558 5553 5548 5541 5536 5539 5535 5530 5526 5522 5519 5514 5508 5504 5499 5494 5489 5483 5479 5474 5471 5468 5463 5458 5455 5451 5448 5445 5442 5439 5437 5434 5432
5586 5582 5579 5576 5571 5568 5565 5561 5558 5555 5551 5547 5541 5534 5527 5531 5529 5524 5519 5513 5509 5503 5499 5494 5492 5487 5481 5477 5472 5468 5465 5461 5456 5452 5448 5445 5442 5440 5438 5435 5433 5431 5429
5577 5574 5570 5566 5563 5556 5556 5554 5551 5549 5545 5541 5537 5531 5525 5524 5520 5515 5510 5506 5500 5496 5491 5486 5483 5479 5474 5469 5465 5461 5457 5454 5449 5445 5441 5440 5438 5436 5434 5432 5429 5428 5427
5570 5567 5563 5559 5555 5553 5551 5548 5545 5543 5539 5535 5530 5525 5520 5515 5512 5507 5503 5499 5494 5489 5484 5480 5476 5472 5466 5463 5459 5456 5451 5446 5441 5439 5436 5434 5433 5431 5430 5428 5427 5426 5424
5564 5560 5557 5554 5551 5548 5546 5543 5540 5536 5532 5528 5523 5518 5514 5509 5505 5501 5496 5492 5487 5483 5478 5474 5471 5467 5462 5458 5454 5451 5445 5440 5436 5433 5430 5430 5429 5428 5427 5426 5425 5424 5422
5558 5555 5552 5549 5546 5543 5540 5537 5533 5529 5525 5521 5516 5512 5508 5504 5500 5495 5491 5486 5482 5478 5473 5470 5466 5462 5458 5455 5451 5446 5441 5437 5433 5429 5426 5426 5426 5426 5424 5424 5423 5422 5421